Content
SEND FEEDBACK

Daily
Averages
Monthly
Summary
India

AHMEDABAD, INDIA


Home > Asia > India
Elevation: 180 feet     Latitude: 23 04N     Longitude: 072 38E

WEATHER
 
SELECT A DAY
Number of Records: 210,363;   Date Range: 7/1/96 - 7/28/14
 
SHARE

PRINT THIS DATA

[ ← Previous Day ]
WEATHER ALMANAC - SEPTEMBER 28, 2013
[ Next Day → ]
[ °C ]   °F
Weather ElementAverageHighLow
Temperature81.8 °F86 °F (1:10 pm)78.8 °F (12:40 am)
Dewpoint78.7 °F82 °F (2:30 pm)77 °F (1:40 am)
Humidity90.2 %100 % (12:40 am)79 % (1:10 pm)
Barometer29.69 in29.77 in (9:10 am)29.62 in (3:10 pm)
Wind Speed10.2 mph15 mph (1:10 pm)
Weather ElementAverage
Visibility1.9 mi
Wind DirectionSSW (193.8 °)

Weather ElementTotal
Precipitation---
Cooling Degree Days17.4 (Base 65)
Growing Degree Days32.4 (Base 50)
Averaged from 45 records on September 28, 2013
WEATHER CONDITIONS BREAKOUT
WIND DIRECTION BREAKOUT
WEATHER BY HOUR - SEPTEMBER 28, 2013
[ °C ]   °F
Local TimeTemperatureDewpointHumidityBarometerVisibilityWind DirectionWind SpeedGust SpeedPrecipitationEventsConditions
12:40 AM78.8 °F78.8 °F100 %29.74 in2.2 miSouth (180°)5.8 mphLight Drizzle
1:10 AM78.8 °F78.8 °F100 %29.74 in2.2 miSSE (160°)8.1 mphHaze
1:40 AM80.6 °F77.0 °F89 %29.71 in2.2 miSouth (170°)9.2 mphHaze
2:10 AM80.6 °F77.0 °F89 %29.71 in2.2 miSouth (190°)8.1 mphHaze
2:30 AM80.0 °F77.0 °F88 %29.70 in1.0 miSouth (180°)5.8 mphHaze
2:40 AM80.6 °F77.0 °F89 %29.68 in2.2 miSouth (180°)8.1 mphHaze
3:10 AM80.6 °F77.0 °F89 %29.68 in2.2 miSouth (170°)9.2 mphHaze
3:40 AM80.6 °F77.0 °F89 %29.68 in2.2 miSouth (190°)9.2 mphHaze
4:40 AM78.8 °F77.0 °F94 %29.68 in2.2 miSouth (190°)11.5 mphHaze
5:10 AM80.6 °F77.0 °F89 %29.68 in2.2 miSouth (190°)11.5 mphHaze
5:30 AM80.0 °F78.0 °F91 %29.69 in1.0 miSouth (180°)6.9 mphHaze
5:40 AM78.8 °F77.0 °F94 %29.68 in2.2 miSSW (200°)12.7 mphHaze
6:10 AM78.8 °F77.0 °F94 %29.71 in2.2 miSouth (190°)13.8 mphHaze
7:40 AM80.6 °F77.0 °F89 %29.74 in1.9 miSouth (190°)10.4 mphHaze
8:10 AM80.6 °F77.0 °F89 %29.74 in1.9 miSouth (190°)10.4 mphHaze
8:30 AM81.0 °F78.0 °F86 %29.75 in1.0 miSSW (200°)6.9 mphHaze
8:40 AM80.6 °F77.0 °F89 %29.74 in2.2 miSSW (200°)11.5 mphHaze
9:10 AM80.6 °F77.0 °F89 %29.77 in2.2 miSSW (200°)11.5 mphHaze
9:40 AM80.6 °F78.8 °F94 %29.77 in2.2 miSSW (200°)10.4 mphHaze
10:40 AM80.6 °F78.8 °F94 %29.77 in1.6 miSW (230°)11.5 mphRainLight Rain
11:30 AM82.0 °F78.0 °F86 %29.76 in1.0 miSW (230°)6.9 mphHaze
11:40 AM82.4 °F78.8 °F89 %29.74 in1.9 miSSW (200°)10.4 mphHaze
1:10 PM86.0 °F78.8 °F79 %29.71 in1.9 miSSW (200°)15.0 mphRainLight Rain
1:40 PM82.4 °F80.6 °F94 %29.68 in1.9 miSSW (210°)11.5 mphHaze
2:10 PM82.4 °F80.6 °F94 %29.68 in1.9 miSSW (210°)13.8 mphHaze
2:30 PM85.0 °F82.0 °F86 %29.66 in1.0 miSSW (200°)6.9 mphHaze
2:40 PM84.2 °F80.6 °F89 %29.65 in2.2 miSSW (200°)11.5 mphHaze
3:10 PM86.0 °F80.6 °F84 %29.62 in2.2 miSW (220°)15.0 mphHaze
3:40 PM86.0 °F80.6 °F84 %29.62 in2.2 miSSW (210°)13.8 mphHaze
4:10 PM86.0 °F80.6 °F84 %29.62 in2.2 miSSW (200°)13.8 mphHaze
4:40 PM86.0 °F80.6 °F84 %29.62 in2.2 miSouth (180°)11.5 mphHaze
5:10 PM86.0 °F80.6 °F84 %29.62 in2.2 miSouth (180°)11.5 mphHaze
5:30 PM86.0 °F81.0 °F81 %29.62 in1.0 miSouth (180°)9.2 mphHaze
5:40 PM84.2 °F80.6 °F89 %29.62 in2.2 miSouth (180°)9.2 mphHaze
6:10 PM84.2 °F80.6 °F89 %29.65 in2.2 miSouth (180°)11.5 mphHaze
7:10 PM82.4 °F78.8 °F89 %29.65 in1.9 miSouth (180°)11.5 mphHaze
7:40 PM82.4 °F80.6 °F94 %29.65 in1.9 miSouth (180°)9.2 mphHaze
8:10 PM80.6 °F80.6 °F100 %29.68 in1.6 miSSW (210°)8.1 mphHaze
8:40 PM80.6 °F80.6 °F100 %29.68 in1.6 miSSW (200°)9.2 mphHaze
9:40 PM80.6 °F80.6 °F100 %29.68 in1.9 miSouth (190°)8.1 mphHaze
10:10 PM80.6 °F80.6 °F100 %29.71 in1.9 miSSW (200°)6.9 mphHaze
10:40 PM80.6 °F77.0 °F89 %29.71 in2.2 miSSW (210°)10.4 mphHaze
11:10 PM80.6 °F77.0 °F89 %29.71 in2.2 miSSW (200°)10.4 mphHaze
11:30 PM80.0 °F77.0 °F87 %29.69 in1.0 miSouth (180°)9.2 mphHaze
11:40 PM80.6 °F77.0 °F89 %29.71 in2.2 miSSW (210°)12.7 mphHaze
Hourly data recorded from VAAH, located miles away from Ahmedabad, India







STORIES FROM OUR PARTNERS